Voltar ao catálogo

FENGYUN 1C DEB

AtivoSSO
NORAD 35156·DEBRIS·🇨🇳 China

Lançado May 10, 1999 de Taiyuan Satellite Launch Center

Loading…

Próximas Passagens (próximas 24 horas)

TLE

AtualizadoSource: Space-Track

Época: Sep 14, 2026, 10:22 UTC

1 35156U 99025DML 26257.43225544  .00000258  00000-0  16634-3 0  9994
2 35156  98.7788 242.1531 0037541  88.6674 271.8798 14.10916765679314

Acompanhe FENGYUN 1C DEB em tempo real com AllMySat

Download on the App Store